View from above orbital plane
|
View from above satellite
|
Ground track
|
The orbit data is extracted from the following two-line orbital elements,
1 00058U 60013A 21023.79856796 .00000079 00000-0 -73530-5 0 9998
2 00058 28.3283 56.7596 0165100 93.5187 268.4256 13.46325291968333
Epoch (UTC): | 23 January 2021 19:09:56 |
Eccentricity: | 0.0165100 |
inclination: | 28.3283° |
perigee height: | 962 km |
apogee height: | 1209 km |
right ascension of ascending node: | 56.7596° |
argument of perigee: | 93.5187° |
revolutions per day: | 13.46325291 |
mean anomaly at epoch: | 268.4256° |
orbit number at epoch: | 96833 |
The dashed part of the orbit path shows where the satellite is in the earth's shadow,
|
|